User: anonymous   Login
Location: Berlin
(52.5170°N, 13.4000°E)
Time: 12:52:40
(UTC+02:00)
Language:

ISS - Orbit

View from above orbital plane
View from above orbital plane
View from above satellite
View from above satellite

Ground track
Ground track

The orbit data is extracted from the following two-line orbital elements,

1 25544U 98067A   19290.37092403  .00000506  00000-0  16800-4 0  9999
2 25544  51.6433 115.3997 0007133 156.1606 268.9108 15.50201883194212
Epoch (UTC): 17 October 2019 08:54:07
Eccentricity: 0.0007133
inclination: 51.6433°
perigee height: 411 km
apogee height: 421 km
right ascension of ascending node: 115.3997°
argument of perigee: 156.1606°
revolutions per day: 15.50201883
mean anomaly at epoch: 268.9108°
orbit number at epoch: 19421

The dashed part of the orbit path shows where the satellite is in the earth's shadow,  

DLR